This is the latest recevied weather packets stored in our database for station/object JL1CBB-13. If no packets are shown the sender has not sent any weather packets the latest 10 day(s).
| Time | Temp. | Humidity | Pressure | Rain* | Wind** | Luminosity | Snow |
|---|---|---|---|---|---|---|---|
| 1777966315 | 21.11° C | 41% | 1023 hPa | 0 mm | - | - | - |
| 1777965715 | 21.11° C | 40% | 1022 hPa | 0 mm | - | - | - |
| 1777965115 | 21.67° C | 38% | 1022 hPa | 0 mm | - | - | - |
| 1777964515 | 22.22° C | 35% | 1022 hPa | 0 mm | - | - | - |
| 1777963915 | 22.22° C | 31% | 1022 hPa | 0 mm | - | - | - |
| 1777963314 | 22.78° C | 24% | 1022 hPa | 0 mm | - | - | - |
| 1777962714 | 23.33° C | 22% | 1022 hPa | 0 mm | - | - | - |
| 1777962114 | 23.33° C | 19% | 1022 hPa | 0 mm | - | - | - |
| 1777961514 | 23.89° C | 11% | 1021 hPa | 0 mm | - | - | - |
| 1777960916 | 24.44° C | 11% | 1021 hPa | 0 mm | - | - | - |
| 1777960316 | 25° C | 9% | 1022 hPa | 0 mm | - | - | - |
| 1777959716 | 26.11° C | 9% | 1021 hPa | 0 mm | - | - | - |
| 1777959115 | 27.22° C | 9% | 1021 hPa | 0 mm | - | - | - |
| 1777958515 | 28.33° C | 10% | 1022 hPa | 0 mm | - | - | - |
| 1777957915 | 28.33° C | 12% | 1022 hPa | 0 mm | - | - | - |
| 1777957315 | 27.78° C | 11% | 1022 hPa | 0 mm | - | - | - |
| 1777956715 | 27.22° C | 12% | 1022 hPa | 0 mm | - | - | - |
| 1777956115 | 26.67° C | 11% | 1022 hPa | 0 mm | - | - | - |
| 1777955514 | 26.67° C | 11% | 1022 hPa | 0 mm | - | - | - |
| 1777954914 | 26.67° C | 11% | 1022 hPa | 0 mm | - | - | - |
| 1777954314 | 27.22° C | 14% | 1022 hPa | 0 mm | - | - | - |
| 1777953714 | 27.22° C | 14% | 1022 hPa | 0 mm | - | - | - |
| 1777953114 | 28.89° C | 12% | 1021 hPa | 0 mm | - | - | - |
| 1777952514 | 29.44° C | 8% | 1022 hPa | 0 mm | - | - | - |
| 1777951916 | 28.89° C | 7% | 1022 hPa | 0 mm | - | - | - |
* Rain latest hour (hover to see other rain measurements)
** Current wind speed in m/s (hover to see current wind gust speed)